User: anonymous   Login
Location: Fort Wayne
(41.1310°N, 85.1290°W)
Time: 21:13:46
(UTC-05:00)
Language:

Cosmos 2082 - Orbit

View from above orbital plane
View from above orbital plane
View from above satellite
View from above satellite

Ground track
Ground track

The orbit data is extracted from the following two-line orbital elements,

1 20624U 90046A   17054.81435366 -.00000207 +00000-0 -83451-4 0  9992
2 20624 071.0399 091.8620 0016085 209.5456 150.4759 14.14219819380947
Epoch (UTC): 23 February 2017 19:32:40
Eccentricity: 0.0016085
inclination: 71.0399°
perigee height: 833 km
apogee height: 856 km
right ascension of ascending node: 91.8620°
argument of perigee: 209.5456°
revolutions per day: 14.14219819
mean anomaly at epoch: 150.4759°
orbit number at epoch: 38094

The dashed part of the orbit path shows where the satellite is in the earth's shadow,  

DLR